Friday Harbor, WA

10:10 AM PDT on August 31, 2016 (GMT -0700)
Friday Harbor

Weather History for KFHR - August, 2012

Change the Weather History Date:

Wednesday, August 8, 2012

  Actual Average Record
Temperature  
Mean Temperature 64 °F -  
Max Temperature 70 °F 71 °F 81 °F (2001)
Min Temperature 57 °F 48 °F 45 °F (2000)
Degree Days  
Heating Degree Days 2    
Growing Degree Days 14 (Base 50)    
Moisture  
Dew Point 53 °F    
Average Humidity 75    
Maximum Humidity 87    
Minimum Humidity 57    
Precipitation  
Precipitation 0.00 in - - ()
Sea Level Pressure  
Sea Level Pressure 30.17 in    
Wind  
Wind Speed 7 mph (South)    
Max Wind Speed 12 mph    
Max Gust Speed -    
Visibility 10 miles    
Events      
Averages and records for this station are not official NWS values.
T = Trace of Precipitation, MM = Missing Value Source: NWS Daily Summary

Daily Weather History Graph

Daily Weather History Graph

Search for Another Location

Airport or City:

Trip Planner

Search our weather history database for the weather conditions in past years. The results will help you decide how hot, cold, wet, or windy it might be!

Date:

Astronomy

Aug. 08, 2012 Rise Set
Actual Time 5:56 AM PDT 8:37 PM PDT
Civil Twilight 5:21 AM PDT 9:13 PM PDT
Nautical Twilight 4:35 AM PDT 9:58 PM PDT
Astronomical Twilight 3:41 AM PDT 10:51 PM PDT
Moon 11:13 PM PDT (8/8) 1:28 PM PDT (8/8)
Length of Visible Light 15h 51m
Length of Day
14h 40m
Waning Gibbous, 59% of the Moon is Illuminated
Aug 8
Waning Gibbous
Aug 9
Last Quarter
Aug 17
New
Aug 24
First Quarter
Aug 31
Full

Hourly Weather History & Observations

Time (PDT) Temp. Dew Point Humidity Pressure Visibility Wind Dir Wind Speed Gust Speed Precip Events Conditions
12:53 AM 59.0 °F 52.0 °F 78% 30.07 in 10.0 mi SW 5.8 mph - N/A   Overcast
1:53 AM 59.0 °F 51.1 °F 75% 30.06 in 10.0 mi SW 8.1 mph - N/A   Overcast
2:53 AM 59.0 °F 52.0 °F 78% 30.06 in 10.0 mi WSW 4.6 mph - N/A   Overcast
3:53 AM 59.0 °F 52.0 °F 78% 30.07 in 10.0 mi SW 5.8 mph - N/A   Overcast
4:53 AM 57.9 °F 52.0 °F 81% 30.08 in 10.0 mi SW 8.1 mph - N/A   Overcast
5:37 AM 59.0 °F 51.8 °F 77% 30.09 in 10.0 mi SSW 10.4 mph - N/A   Overcast
5:53 AM 59.0 °F 52.0 °F 78% 30.09 in 10.0 mi SSW 11.5 mph - N/A   Overcast
6:53 AM 60.1 °F 52.0 °F 75% 30.11 in 10.0 mi Variable 5.8 mph - N/A   Overcast
7:53 AM 57.0 °F 53.1 °F 87% 30.14 in 10.0 mi SE 6.9 mph - N/A   Overcast
8:53 AM 59.0 °F 55.0 °F 87% 30.15 in 10.0 mi SSE 9.2 mph - N/A   Overcast
9:53 AM 59.0 °F 54.0 °F 83% 30.17 in 10.0 mi ESE 5.8 mph - N/A   Overcast
10:53 AM 62.1 °F 55.0 °F 78% 30.19 in 10.0 mi SE 8.1 mph - N/A   Overcast
11:53 AM 62.1 °F 55.0 °F 78% 30.20 in 10.0 mi SE 9.2 mph - N/A   Overcast
12:53 PM 64.0 °F 55.0 °F 73% 30.21 in 10.0 mi ESE 8.1 mph - N/A   Overcast
1:53 PM 64.9 °F 55.0 °F 70% 30.22 in 10.0 mi ESE 9.2 mph - N/A   Overcast
2:53 PM 66.0 °F 54.0 °F 65% 30.22 in 10.0 mi SE 9.2 mph - N/A   Overcast
3:53 PM 68.0 °F 55.0 °F 63% 30.22 in 10.0 mi ESE 6.9 mph - N/A   Overcast
4:53 PM 70.0 °F 54.0 °F 57% 30.22 in 10.0 mi SSW 6.9 mph - N/A   Clear
5:53 PM 69.1 °F 53.1 °F 57% 30.22 in 9.0 mi South 5.8 mph - N/A   Clear
6:53 PM 64.0 °F 53.1 °F 67% 30.22 in 10.0 mi SW 5.8 mph - N/A   Clear
7:53 PM 62.1 °F 54.0 °F 75% 30.22 in 10.0 mi South 3.5 mph - N/A   Clear
8:53 PM 59.0 °F 53.1 °F 81% 30.22 in 10.0 mi SSW 3.5 mph - N/A   Mostly Cloudy
9:53 PM 61.0 °F 53.1 °F 75% 30.23 in 10.0 mi SW 5.8 mph - N/A   Overcast
10:53 PM 60.1 °F 53.1 °F 78% 30.23 in 10.0 mi SW 5.8 mph - N/A   Overcast
11:53 PM 61.0 °F 54.0 °F 78% 30.23 in 10.0 mi WSW 3.5 mph - N/A   Overcast